Location: *
(45.5667°S, 177.5167°W)
Time: 04:02:31
(UTC+00:00)

CZ-4B R/B - Pass Details

Date: 29 May 2022
Orbit: 476 x 653 km, 97.9° (Epoch: 24 June)

Event Time Altitude Azimuth Distance (km) Brightness Sun altitude
Exits shadow 05:34:53 20° 127° (SE) 1,257 4.1 -13.1°
Maximum altitude 05:36:42 29° 83° (E) 987 3.6 -13.4°
Drops below altitude 10° 05:40:08 10° 21° (NNE) 1,810 5.4 -14.0°
Sets 05:42:30 0° 9° (N) 2,726 6.5 -14.4°
